Regional Weather Roundup
Issued by NWS Albany, NY

Home | Current Version | Previous Version | Text Only | Print | Product List | Glossary On
Versions: 1 2 3 4 5 6 7 8 9 10 11 12 13 14 15 16 17 18 19 20 21 22 23 24 25 26 27 28 29 30 31 32 33 34 35 36 37 38 39 40 41 42 43 44 45 46 47 48 49 50
000
ASUS41 KALY 041410
RWRALY

NEW YORK STATE HOURLY WEATHER ROUNDUP
NATIONAL WEATHER SERVICE ALBANY NY
1000 AM EDT MON MAY 04 2015

NOTE: "FAIR" INDICATES FEW OR NO CLOUDS BELOW 12,000 FEET WITH NO
SIGNIFICANT WEATHER AND/OR NO OBSTRUCTIONS TO VISIBILITY.

NYZ032-033-038>043-046>054-057>066-NYZ062>081-041500-
EAST


CITY           SKY/WX    TMP DP  RH WIND       PRES   REMARKS
ALBANY         MOSUNNY   68  42  38 S8        30.17F
GLENS FALLS    SUNNY     68  44  42 S7        30.15F
POUGHKEEPSIE   PTSUNNY   71  46  40 W3        30.18F
MONTGOMERY     MOSUNNY   72  47  40 VRB5      30.19S
WHITE PLAINS   SUNNY     68  49  50 S3        30.21S
ISLIP          MOSUNNY   67  49  52 VRB5      30.21S
NEW YORK CITY  SUNNY     65  50  58 NE6       30.21S
CENTRAL PARK   SUNNY     72  49  44 CALM      30.24S
$$

NYZ005>009-017-018-044>046-055-056-041500-
CENTRAL


CITY           SKY/WX    TMP DP  RH WIND       PRES   REMARKS
FULTON         MOSUNNY   71  47  42 S7        30.10F
SYRACUSE       PTSUNNY   77  43  29 SW9       30.11F
ROME           MOSUNNY   72  44  36 CALM      30.13F
ELMIRA         SUNNY     63  46  54 CALM      30.17F
BINGHAMTON     SUNNY     68  42  38 SW10      30.18F
MONTICELLO     MOSUNNY   68  43  40 SW3       30.23S
$$

NYZ026>034-041>043-041500-
NORTH


CITY           SKY/WX    TMP DP  RH WIND       PRES   REMARKS
WATERTOWN      SUNNY     74  42  31 SW15G22   30.07F
FORT DRUM      NOT AVBL
MASSENA        SUNNY     76  40  27 SW18      30.04F
SARANAC LAKE   SUNNY     70  38  31 SW10      30.11F
PLATTSBURGH    SUNNY     65  43  44 SE10      30.08F
$$

NYZ001>004-010>016-019>021-041500-
WEST


CITY           SKY/WX    TMP DP  RH WIND       PRES   REMARKS
NIAGARA FALLS  MOSUNNY   72  44  36 SW18      30.07F
BUFFALO        MOSUNNY   74  44  34 SW13G22   30.08F
DUNKIRK        SUNNY     75  44  33 SW17G25   30.09F
JAMESTOWN      SUNNY     68  43  40 SW13G22   30.16F
WELLSVILLE     SUNNY     71  37  28 SW15G23   30.19F
ROCHESTER      MOSUNNY   72  44  36 SW12      30.10S
PENN YAN       SUNNY     70  43  37 S12       30.14F
$$

             KEY
       WCI = WIND CHILL INDEX
       VSB = VISIBILITY
       HX  = HEAT INDEX
$$


USA.gov is the U.S. government's official web portal to all federal, state and local government web resources and services.